Regional Weather Roundup
Issued by NWS

Home | Current Version | Previous Version | Text Only | Print | Product List | Glossary Off
Versions: 1 2 3 4 5 6 7 8 9 10 11 12 13 14 15 16 17 18 19 20 21 22 23 24 25 26 27 28 29 30 31 32 33 34 35 36 37 38 39 40 41 42 43 44 45 46 47 48 49 50

494
ASUS43 KIND 211609
RWRIN

WEATHER ROUNDUP FOR INDIANA
NATIONAL WEATHER SERVICE INDIANAPOLIS IN
1200 PM EDT SAT OCT 21 2017

NOTE: "FAIR" INDICATES FEW OR NO CLOUDS BELOW 12,000 FEET WITH NO
SIGNIFICANT WEATHER AND/OR OBSTRUCTIONS TO VISIBILITY.

* - STATION DOES NOT REPORT WEATHER SUCH AS PRECIPITATION OR FOG.

+ - STATION NOT QUALITY CONTROLLED BY THE NATIONAL WEATHER SERVICE.
    USE DATA WITH CAUTION...ESPECIALLY DEWPOINT AND RELATIVE
    HUMIDITY OBSERVATIONS.

INZ001>003-010>013-019-020-211700-
NORTHWEST INDIANA

CITY           SKY/WX    TMP DP  RH WIND       PRES   REMARKS
GARY /AIRPORT/ CLOUDY    68  48  49 S12       30.10S
KNOX *+        CLOUDY    66  50  55 S10       30.15S
LA PORTE +     CLOUDY    68  50  52 S15       30.13F
MONTICELLO +   PTSUNNY   66  48  53 S7        30.15F
RENSSELAER +   PTSUNNY   70  41  35 S14G20    30.13F
VALPARAISO     MOSUNNY   69  51  52 S13G24    30.13F

$$

LMZ046-743>745-211700-
SOUTHERN LAKE MICHIGAN

STATION/POSITION TIME  TEMP    WIND        PRES    WAVE
                       AIR SEA DIR/SP/G            HT
                 (UTC) (F)     (DEG/KT/KT) (MB)    (FT)
BURNS HARBOR     1540   67     180/ 16/ 22 1019.6F
MICHIGAN CITY    1540   66     170/ 10/ 13   N/A
5NW MICH CITY    1600   63 58  190/ 10/ 12   N/A     1

$$

INZ004-005-014>016-021>024-211700-
NORTH CENTRAL INDIANA

CITY           SKY/WX    TMP DP  RH WIND       PRES   REMARKS
ELKHART        SUNNY     68  46  45 S12       30.16S
GOSHEN         MOSUNNY   68  47  46 S12       30.17S
LOGANSPORT +   CLOUDY    66  48  52 S10       30.18S
PERU/GRISSOM   MOSUNNY   68  49  50 S10       30.18S
SOUTH BEND     PTSUNNY   69  48  47 S16       30.15S
WARSAW +       PTSUNNY   66  50  55 S5        30.18S

$$

INZ006>009-017-018-025>027-211700-
NORTHEAST INDIANA

CITY           SKY/WX    TMP DP  RH WIND       PRES   REMARKS
AUBURN +       PTSUNNY   68  52  56 CALM      30.21S
FORT WAYNE     PTSUNNY   68  52  56 SW10      30.21R
HUNTINGTON +   MOSUNNY   67  49  52 SW5       30.20S
KENDALLVILLE + PTSUNNY   67  52  58 S8        30.20S

$$

INZ028-029-035-036-043>045-051>053-211700-
WEST CENTRAL INDIANA

CITY           SKY/WX    TMP DP  RH WIND       PRES   REMARKS
GREENCASTLE +  CLOUDY    61  50  67 S8        30.20S
LAFAYETTE      MOSUNNY   65  51  60 S9        30.15S
TERRE HAUTE    CLOUDY    65  51  60 S10       30.17S

$$

INZ030>032-037>040-046>048-054>057-064-065-211700-
CENTRAL INDIANA

CITY           SKY/WX    TMP DP  RH WIND       PRES   REMARKS
ANDERSON       CLOUDY    68  50  52 S8        30.22S
CP ATTERBURY + CLOUDY    64  54  68 S5        30.23S
COLUMBUS       SUNNY     64  50  59 CALM      30.23S
FISHERS *+     CLOUDY    64  54  68 S7        30.20S
FRANKFORT +    CLOUDY    73  52  48 S10       30.19F
GREENWOOD *+   CLOUDY    70  53  54 S7        30.22S
INDIANAPOLIS   PTSUNNY   64  52  64 S6        30.20S
-EAGLE CREEK   CLOUDY    63  51  65 S5        30.20R
KOKOMO +       PTSUNNY   67  51  56 S9        30.20R
MT COMFORT *+  CLOUDY    68  55  64 SW7       30.22R
SHELBYVILLE    MOSUNNY   67  49  52 S12       30.21F
ZIONSVILLE +   CLOUDY    63  51  64 S7        30.21S

$$

INZ033-034-041-042-049-050-058-059-211700-
EAST CENTRAL INDIANA

CITY           SKY/WX    TMP DP  RH WIND       PRES   REMARKS
MUNCIE         PTSUNNY   70  50  49 S8        30.22S
RICHMOND +     SUNNY     68  52  56 SW8       30.25F

$$

INZ060-061-067>069-081>083-085>088-211700-
SOUTHWEST INDIANA

CITY           SKY/WX    TMP DP  RH WIND       PRES   REMARKS
EVANSVILLE     SUNNY     67  50  54 S8        30.20S
HUNTINGBURG +  MOSUNNY   68  51  54 S10       30.22S
WASHINGTON +   CLOUDY    66  48  50 S13       30.19F

$$

INZ062-063-066-070>080-084-089>092-211700-
SOUTH CENTRAL AND SOUTHEAST INDIANA

CITY           SKY/WX    TMP DP  RH WIND       PRES   REMARKS
BEDFORD +      PTSUNNY   63  50  63 S7        30.21F
BLOOMINGTON    CLOUDY    65  49  56 S7        30.21S
MADISON *+     MOSUNNY   68  46  45 S7        30.26F
NORTH VERNON + CLOUDY    64  50  59 S5        30.24S
SEYMOUR +      CLOUDY    66  52  59 S3        30.23F

$$





USA.gov is the U.S. government's official web portal to all federal, state and local government web resources and services.